owner,sensor,date,latitude,longitude,vertical_datum,sea_water_temperature,qcFlag
Amerada Hess,ioos:station:wmo:42917:1,2022-11-01T00:00:00Z,27.7811,-92.7406,11.0,27.1,11111222
Amerada Hess,ioos:station:wmo:42917:1,2022-11-01T00:10:00Z,27.7811,-92.7405,11.0,27.2,11111222
Amerada Hess,ioos:station:wmo:42917:1,2022-11-01T00:20:00Z,27.7809,-92.7407,11.0,27.2,11111222
Amerada Hess,ioos:station:wmo:42917:1,2022-11-01T00:30:00Z,27.7808,-92.7407,11.0,27.1,11111222
Amerada Hess,ioos:station:wmo:42917:1,2022-11-01T00:40:00Z,27.7808,-92.7408,11.0,27.1,11111222
Amerada Hess,ioos:station:wmo:42917:1,2022-11-01T00:50:00Z,27.7809,-92.7408,11.0,27.2,11111222
Amerada Hess,ioos:station:wmo:42917:1,2022-11-01T01:00:00Z,27.7809,-92.7409,11.0,27.2,11111222
Amerada Hess,ioos:station:wmo:42917:1,2022-11-01T01:10:00Z,27.7807,-92.7408,11.0,27.1,11111222
Amerada Hess,ioos:station:wmo:42917:1,2022-11-01T01:20:00Z,27.7808,-92.7408,11.0,27.1,11111222
Amerada Hess,ioos:station:wmo:42917:1,2022-11-01T01:30:00Z,27.7808,-92.7408,11.0,27.1,11111222
Amerada Hess,ioos:station:wmo:42917:1,2022-11-01T01:40:00Z,27.7808,-92.7408,11.0,27.1,11111222
Amerada Hess,ioos:station:wmo:42917:1,2022-11-01T01:50:00Z,27.7808,-92.7409,11.0,27.2,11111222
Amerada Hess,ioos:station:wmo:42917:1,2022-11-01T02:00:00Z,27.7809,-92.7409,11.0,27.1,11111222
Amerada Hess,ioos:station:wmo:42917:1,2022-11-01T02:10:00Z,27.7808,-92.7409,11.0,27.1,11111222
Amerada Hess,ioos:station:wmo:42917:1,2022-11-01T02:20:00Z,27.7809,-92.7409,11.0,27.1,11111222
Amerada Hess,ioos:station:wmo:42917:1,2022-11-01T02:30:00Z,27.7808,-92.7408,11.0,27.1,11111222
Amerada Hess,ioos:station:wmo:42917:1,2022-11-01T02:40:00Z,27.7809,-92.7408,11.0,27.1,11111222
Amerada Hess,ioos:station:wmo:42917:1,2022-11-01T02:50:00Z,27.7809,-92.7408,11.0,27.1,11111222
Amerada Hess,ioos:station:wmo:42917:1,2022-11-01T03:00:00Z,27.7808,-92.7409,11.0,27.1,11111222
Amerada Hess,ioos:station:wmo:42917:1,2022-11-01T03:10:00Z,27.7808,-92.7409,11.0,27.1,11111222
Amerada Hess,ioos:station:wmo:42917:1,2022-11-01T03:20:00Z,27.7805,-92.7409,11.0,27.1,11111222
Amerada Hess,ioos:station:wmo:42917:1,2022-11-01T03:30:00Z,27.7805,-92.7408,11.0,27.1,11111222
Amerada Hess,ioos:station:wmo:42917:1,2022-11-01T03:40:00Z,27.7804,-92.7399,11.0,27.1,11111222
Amerada Hess,ioos:station:wmo:42917:1,2022-11-01T03:50:00Z,27.7801,-92.7390,11.0,27.1,11111222
Amerada Hess,ioos:station:wmo:42917:1,2022-11-01T04:00:00Z,27.7801,-92.7380,11.0,27.1,11111222
Amerada Hess,ioos:station:wmo:42917:1,2022-11-01T04:10:00Z,27.7800,-92.7378,11.0,27.1,11111222
Amerada Hess,ioos:station:wmo:42917:1,2022-11-01T04:20:00Z,27.7796,-92.7378,11.0,27.1,11111222
Amerada Hess,ioos:station:wmo:42917:1,2022-11-01T04:30:00Z,27.7796,-92.7377,11.0,27.1,11111222
Amerada Hess,ioos:station:wmo:42917:1,2022-11-01T04:40:00Z,27.7796,-92.7377,11.0,27.1,11111222
Amerada Hess,ioos:station:wmo:42917:1,2022-11-01T04:50:00Z,27.7796,-92.7377,11.0,27.1,11111222
Amerada Hess,ioos:station:wmo:42917:1,2022-11-01T05:00:00Z,27.7796,-92.7378,11.0,27.1,11111222
Amerada Hess,ioos:station:wmo:42917:1,2022-11-01T05:10:00Z,27.7796,-92.7379,11.0,27.1,11111222
Amerada Hess,ioos:station:wmo:42917:1,2022-11-01T05:20:00Z,27.7796,-92.7379,11.0,27.1,11111222
Amerada Hess,ioos:station:wmo:42917:1,2022-11-01T05:30:00Z,27.7796,-92.7378,11.0,27.1,11111222
Amerada Hess,ioos:station:wmo:42917:1,2022-11-01T05:40:00Z,27.7796,-92.7378,11.0,27.1,11111222
Amerada Hess,ioos:station:wmo:42917:1,2022-11-01T05:50:00Z,27.7797,-92.7379,11.0,27.1,11111222
Amerada Hess,ioos:station:wmo:42917:1,2022-11-01T06:00:00Z,27.7796,-92.7379,11.0,27.1,11111222
Amerada Hess,ioos:station:wmo:42917:1,2022-11-01T06:10:00Z,27.7797,-92.7381,11.0,27.1,11111222
Amerada Hess,ioos:station:wmo:42917:1,2022-11-01T06:20:00Z,27.7798,-92.7385,11.0,27.1,11111222
Amerada Hess,ioos:station:wmo:42917:1,2022-11-01T06:30:00Z,27.7799,-92.7388,11.0,27.1,11111222
Amerada Hess,ioos:station:wmo:42917:1,2022-11-01T06:40:00Z,27.7801,-92.7392,11.0,27.1,11111222
Amerada Hess,ioos:station:wmo:42917:1,2022-11-01T06:50:00Z,27.7802,-92.7396,11.0,27.1,11111222
Amerada Hess,ioos:station:wmo:42917:1,2022-11-01T07:00:00Z,27.7802,-92.7398,11.0,27.1,11111222
Amerada Hess,ioos:station:wmo:42917:1,2022-11-01T07:10:00Z,27.7803,-92.7401,11.0,27.1,11111222
Amerada Hess,ioos:station:wmo:42917:1,2022-11-01T07:20:00Z,27.7802,-92.7402,11.0,27.1,11111222
Amerada Hess,ioos:station:wmo:42917:1,2022-11-01T07:30:00Z,27.7802,-92.7404,11.0,27.1,11111222
Amerada Hess,ioos:station:wmo:42917:1,2022-11-01T07:40:00Z,27.7803,-92.7405,11.0,27.1,11111222
Amerada Hess,ioos:station:wmo:42917:1,2022-11-01T07:50:00Z,27.7803,-92.7408,11.0,27.1,11111222
Amerada Hess,ioos:station:wmo:42917:1,2022-11-01T08:00:00Z,27.7804,-92.7409,11.0,27.1,11111222
Amerada Hess,ioos:station:wmo:42917:1,2022-11-01T08:10:00Z,27.7803,-92.7407,11.0,27.1,11111222
Amerada Hess,ioos:station:wmo:42917:1,2022-11-01T08:20:00Z,27.7803,-92.7407,11.0,27.1,11111222
Amerada Hess,ioos:station:wmo:42917:1,2022-11-01T08:30:00Z,27.7804,-92.7409,11.0,27.1,11111222
Amerada Hess,ioos:station:wmo:42917:1,2022-11-01T08:40:00Z,27.7804,-92.7408,11.0,27.1,11111222
Amerada Hess,ioos:station:wmo:42917:1,2022-11-01T08:50:00Z,27.7804,-92.7408,11.0,27.1,11111222
Amerada Hess,ioos:station:wmo:42917:1,2022-11-01T09:00:00Z,27.7804,-92.7408,11.0,27.1,11111222
Amerada Hess,ioos:station:wmo:42917:1,2022-11-01T09:10:00Z,27.7804,-92.7408,11.0,27.1,11111222
Amerada Hess,ioos:station:wmo:42917:1,2022-11-01T09:20:00Z,27.7804,-92.7409,11.0,27.1,11111222
Amerada Hess,ioos:station:wmo:42917:1,2022-11-01T09:30:00Z,27.7804,-92.7407,11.0,27.1,11111222
Amerada Hess,ioos:station:wmo:42917:1,2022-11-01T09:40:00Z,27.7803,-92.7407,11.0,27.1,11111222
Amerada Hess,ioos:station:wmo:42917:1,2022-11-01T09:50:00Z,27.7805,-92.7408,11.0,27.1,11111222
Amerada Hess,ioos:station:wmo:42917:1,2022-11-01T10:00:00Z,27.7803,-92.7406,11.0,27.1,11111222
Amerada Hess,ioos:station:wmo:42917:1,2022-11-01T10:10:00Z,27.7803,-92.7407,11.0,27.1,11111222
Amerada Hess,ioos:station:wmo:42917:1,2022-11-01T10:20:00Z,27.7803,-92.7405,11.0,27.1,11111222
Amerada Hess,ioos:station:wmo:42917:1,2022-11-01T10:30:00Z,27.7803,-92.7406,11.0,27.1,11111222
Amerada Hess,ioos:station:wmo:42917:1,2022-11-01T10:40:00Z,27.7803,-92.7405,11.0,27.1,11111222
Amerada Hess,ioos:station:wmo:42917:1,2022-11-01T10:50:00Z,27.7804,-92.7407,11.0,27.1,11111222
Amerada Hess,ioos:station:wmo:42917:1,2022-11-01T11:00:00Z,27.7803,-92.7407,11.0,27.1,11111222
Amerada Hess,ioos:station:wmo:42917:1,2022-11-01T11:10:00Z,27.7803,-92.7406,11.0,27.1,11111222
Amerada Hess,ioos:station:wmo:42917:1,2022-11-01T11:20:00Z,27.7803,-92.7408,11.0,27.1,11111222
Amerada Hess,ioos:station:wmo:42917:1,2022-11-01T11:30:00Z,27.7803,-92.7407,11.0,27.1,11111222
Amerada Hess,ioos:station:wmo:42917:1,2022-11-01T11:40:00Z,27.7804,-92.7408,11.0,27.1,11111222
Amerada Hess,ioos:station:wmo:42917:1,2022-11-01T11:50:00Z,27.7803,-92.7408,11.0,27.1,11111222
Amerada Hess,ioos:station:wmo:42917:1,2022-11-01T12:00:00Z,27.7803,-92.7408,11.0,27.1,11111222
Amerada Hess,ioos:station:wmo:42917:1,2022-11-01T12:10:00Z,27.7804,-92.7408,11.0,27.1,11111222
Amerada Hess,ioos:station:wmo:42917:1,2022-11-01T12:20:00Z,27.7805,-92.7408,11.0,27.1,11111222
Amerada Hess,ioos:station:wmo:42917:1,2022-11-01T12:30:00Z,27.7805,-92.7408,11.0,27.1,11111222
Amerada Hess,ioos:station:wmo:42917:1,2022-11-01T12:40:00Z,27.7806,-92.7408,11.0,27.1,11111222
Amerada Hess,ioos:station:wmo:42917:1,2022-11-01T12:50:00Z,27.7804,-92.7408,11.0,27.1,11111222
Amerada Hess,ioos:station:wmo:42917:1,2022-11-01T13:00:00Z,27.7803,-92.7406,11.0,27.1,11111222
Amerada Hess,ioos:station:wmo:42917:1,2022-11-01T13:10:00Z,27.7803,-92.7407,11.0,27.1,11111222
Amerada Hess,ioos:station:wmo:42917:1,2022-11-01T13:20:00Z,27.7803,-92.7406,11.0,27.1,11111222
Amerada Hess,ioos:station:wmo:42917:1,2022-11-01T13:30:00Z,27.7803,-92.7404,11.0,27.1,11111222
Amerada Hess,ioos:station:wmo:42917:1,2022-11-01T13:40:00Z,27.7802,-92.7402,11.0,27.1,11111222
Amerada Hess,ioos:station:wmo:42917:1,2022-11-01T13:50:00Z,27.7801,-92.7398,11.0,27.1,11111222
Amerada Hess,ioos:station:wmo:42917:1,2022-11-01T14:00:00Z,27.7799,-92.7395,11.0,27.1,11111222
Amerada Hess,ioos:station:wmo:42917:1,2022-11-01T14:10:00Z,27.7799,-92.7390,11.0,27.1,11111222
Amerada Hess,ioos:station:wmo:42917:1,2022-11-01T14:20:00Z,27.7798,-92.7385,11.0,27.1,11111222
Amerada Hess,ioos:station:wmo:42917:1,2022-11-01T14:30:00Z,27.7797,-92.7381,11.0,27.1,11111222
Amerada Hess,ioos:station:wmo:42917:1,2022-11-01T14:40:00Z,27.7796,-92.7378,11.0,27.1,11111222
Amerada Hess,ioos:station:wmo:42917:1,2022-11-01T14:50:00Z,27.7796,-92.7378,11.0,27.0,11111222
Amerada Hess,ioos:station:wmo:42917:1,2022-11-01T15:00:00Z,27.7796,-92.7378,11.0,27.1,11111222
Amerada Hess,ioos:station:wmo:42917:1,2022-11-01T15:10:00Z,27.7795,-92.7378,11.0,27.0,11111222
Amerada Hess,ioos:station:wmo:42917:1,2022-11-01T15:20:00Z,27.7796,-92.7377,11.0,27.0,11111222
Amerada Hess,ioos:station:wmo:42917:1,2022-11-01T15:30:00Z,27.7797,-92.7378,11.0,27.0,11111222
Amerada Hess,ioos:station:wmo:42917:1,2022-11-01T15:40:00Z,27.7796,-92.7378,11.0,27.0,11111222
Amerada Hess,ioos:station:wmo:42917:1,2022-11-01T15:50:00Z,27.7796,-92.7377,11.0,27.0,11111222
Amerada Hess,ioos:station:wmo:42917:1,2022-11-01T16:00:00Z,27.7795,-92.7377,11.0,27.0,11111222
Amerada Hess,ioos:station:wmo:42917:1,2022-11-01T16:10:00Z,27.7795,-92.7378,11.0,27.0,11111222
Amerada Hess,ioos:station:wmo:42917:1,2022-11-01T16:20:00Z,27.7796,-92.7378,11.0,27.0,11111222
Amerada Hess,ioos:station:wmo:42917:1,2022-11-01T16:30:00Z,27.7796,-92.7377,11.0,27.0,11111222
Amerada Hess,ioos:station:wmo:42917:1,2022-11-01T16:40:00Z,27.7796,-92.7379,11.0,27.0,11111222
Amerada Hess,ioos:station:wmo:42917:1,2022-11-01T16:50:00Z,27.7795,-92.7378,11.0,27.0,11111222
Amerada Hess,ioos:station:wmo:42917:1,2022-11-01T17:00:00Z,27.7795,-92.7378,11.0,27.0,11111222
Amerada Hess,ioos:station:wmo:42917:1,2022-11-01T17:10:00Z,27.7795,-92.7378,11.0,27.0,11111222
Amerada Hess,ioos:station:wmo:42917:1,2022-11-01T17:20:00Z,27.7795,-92.7377,11.0,27.0,11111222
Amerada Hess,ioos:station:wmo:42917:1,2022-11-01T17:30:00Z,27.7795,-92.7380,11.0,27.0,11111222
Amerada Hess,ioos:station:wmo:42917:1,2022-11-01T17:40:00Z,27.7796,-92.7379,11.0,27.0,11111222
Amerada Hess,ioos:station:wmo:42917:1,2022-11-01T17:50:00Z,27.7797,-92.7385,11.0,27.0,11111222
Amerada Hess,ioos:station:wmo:42917:1,2022-11-01T18:00:00Z,27.7800,-92.7391,11.0,27.0,11111222
Amerada Hess,ioos:station:wmo:42917:1,2022-11-01T18:10:00Z,27.7801,-92.7397,11.0,27.0,11111222
Amerada Hess,ioos:station:wmo:42917:1,2022-11-01T18:20:00Z,27.7802,-92.7402,11.0,27.0,11111222
Amerada Hess,ioos:station:wmo:42917:1,2022-11-01T18:30:00Z,27.7805,-92.7410,11.0,27.0,11111222
Amerada Hess,ioos:station:wmo:42917:1,2022-11-01T18:40:00Z,27.7804,-92.7408,11.0,27.0,11111222
Amerada Hess,ioos:station:wmo:42917:1,2022-11-01T18:50:00Z,27.7805,-92.7407,11.0,27.0,11111222
Amerada Hess,ioos:station:wmo:42917:1,2022-11-01T19:00:00Z,27.7804,-92.7407,11.0,27.0,11111222
Amerada Hess,ioos:station:wmo:42917:1,2022-11-01T19:10:00Z,27.7804,-92.7407,11.0,27.0,11111222
Amerada Hess,ioos:station:wmo:42917:1,2022-11-01T19:20:00Z,27.7803,-92.7407,11.0,27.0,11111222
Amerada Hess,ioos:station:wmo:42917:1,2022-11-01T19:30:00Z,27.7803,-92.7407,11.0,27.0,11111222
Amerada Hess,ioos:station:wmo:42917:1,2022-11-01T19:40:00Z,27.7803,-92.7407,11.0,27.0,11111222
Amerada Hess,ioos:station:wmo:42917:1,2022-11-01T19:50:00Z,27.7803,-92.7407,11.0,27.0,11111222
Amerada Hess,ioos:station:wmo:42917:1,2022-11-01T20:00:00Z,27.7805,-92.7408,11.0,27.0,11111222
Amerada Hess,ioos:station:wmo:42917:1,2022-11-01T20:10:00Z,27.7805,-92.7408,11.0,27.0,11111222
Amerada Hess,ioos:station:wmo:42917:1,2022-11-01T20:20:00Z,27.7803,-92.7409,11.0,27.0,11111222
Amerada Hess,ioos:station:wmo:42917:1,2022-11-01T20:30:00Z,27.7804,-92.7408,11.0,27.0,11111222
Amerada Hess,ioos:station:wmo:42917:1,2022-11-01T20:40:00Z,27.7804,-92.7409,11.0,27.0,11111222
Amerada Hess,ioos:station:wmo:42917:1,2022-11-01T20:50:00Z,27.7804,-92.7409,11.0,27.0,11111222
Amerada Hess,ioos:station:wmo:42917:1,2022-11-01T21:00:00Z,27.7804,-92.7409,11.0,27.0,11111222
Amerada Hess,ioos:station:wmo:42917:1,2022-11-01T21:10:00Z,27.7803,-92.7408,11.0,27.0,11111222
Amerada Hess,ioos:station:wmo:42917:1,2022-11-01T21:20:00Z,27.7803,-92.7408,11.0,27.0,11111222
Amerada Hess,ioos:station:wmo:42917:1,2022-11-01T21:30:00Z,27.7801,-92.7409,11.0,27.0,11111222
Amerada Hess,ioos:station:wmo:42917:1,2022-11-01T21:40:00Z,27.7802,-92.7408,11.0,27.0,11111222
Amerada Hess,ioos:station:wmo:42917:1,2022-11-01T21:50:00Z,27.7804,-92.7409,11.0,27.0,11111222
Amerada Hess,ioos:station:wmo:42917:1,2022-11-01T22:00:00Z,27.7803,-92.7408,11.0,27.0,11111222
Amerada Hess,ioos:station:wmo:42917:1,2022-11-01T22:10:00Z,27.7803,-92.7406,11.0,27.0,11111222
Amerada Hess,ioos:station:wmo:42917:1,2022-11-01T22:20:00Z,27.7802,-92.7399,11.0,27.0,11111222
Amerada Hess,ioos:station:wmo:42917:1,2022-11-01T22:30:00Z,27.7800,-92.7393,11.0,27.0,11111222
Amerada Hess,ioos:station:wmo:42917:1,2022-11-01T22:40:00Z,27.7799,-92.7387,11.0,27.0,11111222
Amerada Hess,ioos:station:wmo:42917:1,2022-11-01T22:50:00Z,27.7799,-92.7383,11.0,27.0,11111222
Amerada Hess,ioos:station:wmo:42917:1,2022-11-01T23:00:00Z,27.7796,-92.7378,11.0,27.0,11111222
Amerada Hess,ioos:station:wmo:42917:1,2022-11-01T23:10:00Z,27.7795,-92.7385,11.0,27.0,11111222
Amerada Hess,ioos:station:wmo:42917:1,2022-11-01T23:20:00Z,27.7794,-92.7379,11.0,27.0,11111222
Amerada Hess,ioos:station:wmo:42917:1,2022-11-01T23:30:00Z,27.7794,-92.7377,11.0,27.0,11111222
Amerada Hess,ioos:station:wmo:42917:1,2022-11-01T23:40:00Z,27.7794,-92.7375,11.0,27.0,11111222
Amerada Hess,ioos:station:wmo:42917:1,2022-11-01T23:50:00Z,27.7796,-92.7376,11.0,27.0,11111222
Amerada Hess,ioos:station:wmo:42917:1,2022-11-02T00:00:00Z,27.7802,-92.7379,11.0,27.0,11111222
Amerada Hess,ioos:station:wmo:42917:1,2022-11-02T00:10:00Z,27.7808,-92.7382,11.0,27.0,11111222
Amerada Hess,ioos:station:wmo:42917:1,2022-11-02T00:20:00Z,27.7812,-92.7383,11.0,27.0,11111222
Amerada Hess,ioos:station:wmo:42917:1,2022-11-02T00:30:00Z,27.7814,-92.7381,11.0,27.0,11111222
Amerada Hess,ioos:station:wmo:42917:1,2022-11-02T00:40:00Z,27.7814,-92.7380,11.0,27.0,11111222
Amerada Hess,ioos:station:wmo:42917:1,2022-11-02T00:50:00Z,27.7816,-92.7381,11.0,27.0,11111222
Amerada Hess,ioos:station:wmo:42917:1,2022-11-02T01:00:00Z,27.7816,-92.7381,11.0,27.0,11111222
Amerada Hess,ioos:station:wmo:42917:1,2022-11-02T01:10:00Z,27.7815,-92.7381,11.0,27.0,11111222
Amerada Hess,ioos:station:wmo:42917:1,2022-11-02T01:20:00Z,27.7815,-92.7382,11.0,27.0,11111222
Amerada Hess,ioos:station:wmo:42917:1,2022-11-02T01:30:00Z,27.7815,-92.7382,11.0,27.0,11111222
Amerada Hess,ioos:station:wmo:42917:1,2022-11-02T01:40:00Z,27.7814,-92.7381,11.0,27.0,11111222
Amerada Hess,ioos:station:wmo:42917:1,2022-11-02T01:50:00Z,27.7812,-92.7385,11.0,27.0,11111222
Amerada Hess,ioos:station:wmo:42917:1,2022-11-02T02:00:00Z,27.7810,-92.7393,11.0,27.0,11111222
Amerada Hess,ioos:station:wmo:42917:1,2022-11-02T02:10:00Z,27.7808,-92.7399,11.0,27.0,11111222
Amerada Hess,ioos:station:wmo:42917:1,2022-11-02T02:20:00Z,27.7807,-92.7405,11.0,27.0,11111222
Amerada Hess,ioos:station:wmo:42917:1,2022-11-02T02:30:00Z,27.7805,-92.7409,11.0,27.0,11111222
Amerada Hess,ioos:station:wmo:42917:1,2022-11-02T02:40:00Z,27.7806,-92.7412,11.0,27.0,11111222
Amerada Hess,ioos:station:wmo:42917:1,2022-11-02T02:50:00Z,27.7805,-92.7411,11.0,27.0,11111222
Amerada Hess,ioos:station:wmo:42917:1,2022-11-02T03:00:00Z,27.7804,-92.7411,11.0,27.0,11111222
Amerada Hess,ioos:station:wmo:42917:1,2022-11-02T03:10:00Z,27.7806,-92.7412,11.0,27.0,11111222
Amerada Hess,ioos:station:wmo:42917:1,2022-11-02T03:20:00Z,27.7806,-92.7411,11.0,27.0,11111222
Amerada Hess,ioos:station:wmo:42917:1,2022-11-02T03:30:00Z,27.7805,-92.7411,11.0,27.0,11111222
Amerada Hess,ioos:station:wmo:42917:1,2022-11-02T03:40:00Z,27.7805,-92.7410,11.0,27.0,11111222
Amerada Hess,ioos:station:wmo:42917:1,2022-11-02T03:50:00Z,27.7806,-92.7409,11.0,27.0,11111222
Amerada Hess,ioos:station:wmo:42917:1,2022-11-02T04:00:00Z,27.7805,-92.7409,11.0,27.0,11111222
Amerada Hess,ioos:station:wmo:42917:1,2022-11-02T04:10:00Z,27.7806,-92.7405,11.0,27.0,11111222
Amerada Hess,ioos:station:wmo:42917:1,2022-11-02T04:20:00Z,27.7809,-92.7401,11.0,27.0,11111222
Amerada Hess,ioos:station:wmo:42917:1,2022-11-02T04:30:00Z,27.7810,-92.7394,11.0,27.0,11111222
Amerada Hess,ioos:station:wmo:42917:1,2022-11-02T04:40:00Z,27.7812,-92.7388,11.0,27.0,11111222
Amerada Hess,ioos:station:wmo:42917:1,2022-11-02T04:50:00Z,27.7815,-92.7382,11.0,27.0,11111222
Amerada Hess,ioos:station:wmo:42917:1,2022-11-02T05:00:00Z,27.7815,-92.7381,11.0,27.0,11111222
Amerada Hess,ioos:station:wmo:42917:1,2022-11-02T05:10:00Z,27.7815,-92.7381,11.0,27.0,11111222
Amerada Hess,ioos:station:wmo:42917:1,2022-11-02T05:20:00Z,27.7815,-92.7382,11.0,27.0,11111222
Amerada Hess,ioos:station:wmo:42917:1,2022-11-02T05:30:00Z,27.7815,-92.7381,11.0,27.0,11111222
Amerada Hess,ioos:station:wmo:42917:1,2022-11-02T05:40:00Z,27.7815,-92.7381,11.0,27.0,11111222
Amerada Hess,ioos:station:wmo:42917:1,2022-11-02T05:50:00Z,27.7815,-92.7382,11.0,27.0,11111222
Amerada Hess,ioos:station:wmo:42917:1,2022-11-02T06:00:00Z,27.7816,-92.7382,11.0,27.0,11111222
Amerada Hess,ioos:station:wmo:42917:1,2022-11-02T06:10:00Z,27.7815,-92.7380,11.0,27.0,11111222
Amerada Hess,ioos:station:wmo:42917:1,2022-11-02T06:20:00Z,27.7815,-92.7381,11.0,27.0,11111222
Amerada Hess,ioos:station:wmo:42917:1,2022-11-02T06:30:00Z,27.7815,-92.7381,11.0,27.0,11111222
Amerada Hess,ioos:station:wmo:42917:1,2022-11-02T06:40:00Z,27.7817,-92.7381,11.0,27.0,11111222
Amerada Hess,ioos:station:wmo:42917:1,2022-11-02T06:50:00Z,27.7816,-92.7382,11.0,27.0,11111222
Amerada Hess,ioos:station:wmo:42917:1,2022-11-02T07:00:00Z,27.7816,-92.7382,11.0,27.0,11111222
Amerada Hess,ioos:station:wmo:42917:1,2022-11-02T07:10:00Z,27.7816,-92.7383,11.0,27.0,11111222
Amerada Hess,ioos:station:wmo:42917:1,2022-11-02T07:20:00Z,27.7814,-92.7379,11.0,27.0,11111222
Amerada Hess,ioos:station:wmo:42917:1,2022-11-02T07:30:00Z,27.7814,-92.7380,11.0,27.0,11111222
Amerada Hess,ioos:station:wmo:42917:1,2022-11-02T07:40:00Z,27.7815,-92.7382,11.0,27.0,11111222
Amerada Hess,ioos:station:wmo:42917:1,2022-11-02T07:50:00Z,27.7815,-92.7382,11.0,27.0,11111222
Amerada Hess,ioos:station:wmo:42917:1,2022-11-02T08:00:00Z,27.7815,-92.7381,11.0,27.0,11111222
Amerada Hess,ioos:station:wmo:42917:1,2022-11-02T08:10:00Z,27.7814,-92.7384,11.0,27.0,11111222
Amerada Hess,ioos:station:wmo:42917:1,2022-11-02T08:20:00Z,27.7813,-92.7387,11.0,27.0,11111222
Amerada Hess,ioos:station:wmo:42917:1,2022-11-02T08:30:00Z,27.7813,-92.7392,11.0,27.0,11111222
Amerada Hess,ioos:station:wmo:42917:1,2022-11-02T08:40:00Z,27.7812,-92.7393,11.0,27.0,11111222
Amerada Hess,ioos:station:wmo:42917:1,2022-11-02T08:50:00Z,27.7810,-92.7396,11.0,27.0,11111222
Amerada Hess,ioos:station:wmo:42917:1,2022-11-02T09:00:00Z,27.7809,-92.7398,11.0,27.0,11111222
Amerada Hess,ioos:station:wmo:42917:1,2022-11-02T09:10:00Z,27.7808,-92.7401,11.0,27.0,11111222
Amerada Hess,ioos:station:wmo:42917:1,2022-11-02T09:20:00Z,27.7808,-92.7406,11.0,27.0,11111222
Amerada Hess,ioos:station:wmo:42917:1,2022-11-02T09:30:00Z,27.7806,-92.7408,11.0,27.0,11111222
Amerada Hess,ioos:station:wmo:42917:1,2022-11-02T09:40:00Z,27.7805,-92.7408,11.0,27.0,11111222
Amerada Hess,ioos:station:wmo:42917:1,2022-11-02T09:50:00Z,27.7805,-92.7407,11.0,27.0,11111222
Amerada Hess,ioos:station:wmo:42917:1,2022-11-02T10:00:00Z,27.7805,-92.7409,11.0,27.0,11111222
Amerada Hess,ioos:station:wmo:42917:1,2022-11-02T10:10:00Z,27.7805,-92.7408,11.0,27.0,11111222
Amerada Hess,ioos:station:wmo:42917:1,2022-11-02T10:20:00Z,27.7805,-92.7408,11.0,27.0,11111222
Amerada Hess,ioos:station:wmo:42917:1,2022-11-02T10:30:00Z,27.7804,-92.7406,11.0,27.0,11111222
Amerada Hess,ioos:station:wmo:42917:1,2022-11-02T10:40:00Z,27.7805,-92.7408,11.0,27.0,11111222
Amerada Hess,ioos:station:wmo:42917:1,2022-11-02T10:50:00Z,27.7805,-92.7408,11.0,27.0,11111222
Amerada Hess,ioos:station:wmo:42917:1,2022-11-02T11:00:00Z,27.7804,-92.7408,11.0,27.0,11111222
Amerada Hess,ioos:station:wmo:42917:1,2022-11-02T11:10:00Z,27.7805,-92.7409,11.0,27.0,11111222
Amerada Hess,ioos:station:wmo:42917:1,2022-11-02T11:20:00Z,27.7805,-92.7408,11.0,27.0,11111222
Amerada Hess,ioos:station:wmo:42917:1,2022-11-02T11:30:00Z,27.7807,-92.7408,11.0,27.0,11111222
Amerada Hess,ioos:station:wmo:42917:1,2022-11-02T11:40:00Z,27.7810,-92.7407,11.0,27.0,11111222
Amerada Hess,ioos:station:wmo:42917:1,2022-11-02T11:50:00Z,27.7810,-92.7408,11.0,27.0,11111222
Amerada Hess,ioos:station:wmo:42917:1,2022-11-02T12:00:00Z,27.7808,-92.7406,11.0,27.0,11111222
Amerada Hess,ioos:station:wmo:42917:1,2022-11-02T12:10:00Z,27.7808,-92.7408,11.0,27.0,11111222
Amerada Hess,ioos:station:wmo:42917:1,2022-11-02T12:20:00Z,27.7810,-92.7409,11.0,27.0,11111222
Amerada Hess,ioos:station:wmo:42917:1,2022-11-02T12:30:00Z,27.7809,-92.7409,11.0,27.0,11111222
Amerada Hess,ioos:station:wmo:42917:1,2022-11-02T12:40:00Z,27.7809,-92.7409,11.0,27.0,11111222
Amerada Hess,ioos:station:wmo:42917:1,2022-11-02T12:50:00Z,27.7809,-92.7409,11.0,27.0,11111222
Amerada Hess,ioos:station:wmo:42917:1,2022-11-02T13:00:00Z,27.7809,-92.7410,11.0,27.0,11111222
Amerada Hess,ioos:station:wmo:42917:1,2022-11-02T13:10:00Z,27.7809,-92.7409,11.0,27.0,11111222
Amerada Hess,ioos:station:wmo:42917:1,2022-11-02T13:20:00Z,27.7809,-92.7409,11.0,27.0,11111222
Amerada Hess,ioos:station:wmo:42917:1,2022-11-02T13:30:00Z,27.7809,-92.7409,11.0,27.0,11111222
Amerada Hess,ioos:station:wmo:42917:1,2022-11-02T13:40:00Z,27.7809,-92.7410,11.0,27.0,11111222
Amerada Hess,ioos:station:wmo:42917:1,2022-11-02T13:50:00Z,27.7809,-92.7408,11.0,27.0,11111222
Amerada Hess,ioos:station:wmo:42917:1,2022-11-02T14:00:00Z,27.7810,-92.7408,11.0,27.0,11111222
Amerada Hess,ioos:station:wmo:42917:1,2022-11-02T14:10:00Z,27.7810,-92.7408,11.0,27.0,11111222
Amerada Hess,ioos:station:wmo:42917:1,2022-11-02T14:20:00Z,27.7810,-92.7409,11.0,27.0,11111222
Amerada Hess,ioos:station:wmo:42917:1,2022-11-02T14:30:00Z,27.7809,-92.7410,11.0,27.0,11111222
Amerada Hess,ioos:station:wmo:42917:1,2022-11-02T14:40:00Z,27.7809,-92.7410,11.0,27.0,11111222
Amerada Hess,ioos:station:wmo:42917:1,2022-11-02T14:50:00Z,27.7810,-92.7409,11.0,27.0,11111222
Amerada Hess,ioos:station:wmo:42917:1,2022-11-02T15:00:00Z,27.7810,-92.7409,11.0,27.0,11111222
Amerada Hess,ioos:station:wmo:42917:1,2022-11-02T15:10:00Z,27.7810,-92.7409,11.0,27.0,11111222
Amerada Hess,ioos:station:wmo:42917:1,2022-11-02T15:20:00Z,27.7809,-92.7409,11.0,27.0,11111222
Amerada Hess,ioos:station:wmo:42917:1,2022-11-02T15:30:00Z,27.7809,-92.7409,11.0,27.0,11111222
Amerada Hess,ioos:station:wmo:42917:1,2022-11-02T15:40:00Z,27.7809,-92.7409,11.0,27.0,11111222
Amerada Hess,ioos:station:wmo:42917:1,2022-11-02T15:50:00Z,27.7809,-92.7409,11.0,27.0,11111222
Amerada Hess,ioos:station:wmo:42917:1,2022-11-02T16:00:00Z,27.7809,-92.7410,11.0,27.0,11111222
Amerada Hess,ioos:station:wmo:42917:1,2022-11-02T16:10:00Z,27.7809,-92.7410,11.0,27.0,11111222
Amerada Hess,ioos:station:wmo:42917:1,2022-11-02T16:20:00Z,27.7810,-92.7410,11.0,27.0,11111222
Amerada Hess,ioos:station:wmo:42917:1,2022-11-02T16:30:00Z,27.7810,-92.7410,11.0,27.0,11111222
Amerada Hess,ioos:station:wmo:42917:1,2022-11-02T16:40:00Z,27.7809,-92.7409,11.0,27.0,11111222
Amerada Hess,ioos:station:wmo:42917:1,2022-11-02T16:50:00Z,27.7809,-92.7409,11.0,27.0,11111222
Amerada Hess,ioos:station:wmo:42917:1,2022-11-02T17:00:00Z,27.7809,-92.7409,11.0,27.0,11111222
Amerada Hess,ioos:station:wmo:42917:1,2022-11-02T17:10:00Z,27.7809,-92.7410,11.0,27.0,11111222
Amerada Hess,ioos:station:wmo:42917:1,2022-11-02T17:20:00Z,27.7809,-92.7409,11.0,27.0,11111222